| time (UTC) | temp F | wind direction | speed MPH | gust MPH | rain 1hr in | rain 24hr in | rain mn in | humidity % | barometer mb |
| 20260504031513 | 67 | 156 | 0.0 | 3.0 | 0.00 | 0.00 | 0.00 | 49 | 1015.8 |
| 20260504030018 | 68 | 176 | 0.0 | 3.0 | 0.00 | 0.00 | 0.00 | 48 | 1015.7 |
| 20260504024522 | 68 | 165 | 0.0 | 4.0 | 0.00 | 0.00 | 0.00 | 47 | 1015.7 |
| 20260504023026 | 69 | 195 | 0.0 | 3.0 | 0.00 | 0.00 | 0.00 | 47 | 1015.7 |
| 20260504021510 | 69 | 152 | 0.0 | 2.0 | 0.00 | 0.00 | 0.00 | 46 | 1015.5 |
| 20260504020012 | 70 | 222 | 0.0 | 2.0 | 0.00 | 0.00 | 0.00 | 45 | 1015.2 |
| 20260504014519 | 70 | 170 | 0.0 | 2.0 | 0.00 | 0.00 | 0.00 | 44 | 1015.3 |
| 20260504013020 | 71 | 162 | 0.0 | 2.0 | 0.00 | 0.00 | 0.00 | 42 | 1015.3 |
| 20260504011528 | 72 | 124 | 0.0 | 2.0 | 0.00 | 0.00 | 0.00 | 42 | 1015.2 |
| 20260504010025 | 73 | 176 | 2.0 | 3.0 | 0.00 | 0.00 | 0.00 | 39 | 1015.5 |
| 20260504004514 | 73 | 145 | 0.0 | 4.0 | 0.00 | 0.00 | 0.00 | 38 | 1015.4 |
| 20260504003020 | 74 | 185 | 1.0 | 4.0 | 0.00 | 0.00 | 0.00 | 37 | 1015.6 |
| 20260504001522 | 75 | 172 | 2.0 | 5.0 | 0.00 | 0.00 | 0.00 | 37 | 1015.7 |
| 20260504000026 | 75 | 197 | 2.0 | 6.0 | 0.00 | 0.00 | 0.00 | 37 | 1015.8 |
| 20260503234514 | 75 | 162 | 2.0 | 7.0 | 0.00 | 0.00 | 0.00 | 36 | 1015.7 |
| 20260503233027 | 76 | 203 | 2.0 | 6.0 | 0.00 | 0.00 | 0.00 | 35 | 1015.9 |
| 20260503231521 | 77 | 156 | 1.0 | 4.0 | 0.00 | 0.00 | 0.00 | 34 | 1015.8 |
| 20260503230024 | 77 | 143 | 2.0 | 6.0 | 0.00 | 0.00 | 0.00 | 34 | 1016.0 |
| 20260503224524 | 77 | 142 | 3.0 | 8.0 | 0.00 | 0.00 | 0.00 | 34 | 1016.0 |
| 20260503223022 | 78 | 193 | 2.0 | 6.0 | 0.00 | 0.00 | 0.00 | 32 | 1016.1 |
| 20260503221519 | 78 | 194 | 1.0 | 6.0 | 0.00 | 0.00 | 0.00 | 34 | 1016.3 |
| 20260503220007 | 79 | 173 | 2.0 | 7.0 | 0.00 | 0.00 | 0.00 | 31 | 1016.4 |
| 20260503214506 | 79 | 145 | 2.0 | 10.0 | 0.00 | 0.00 | 0.00 | 33 | 1016.8 |
| 20260503213046 | 79 | 196 | 2.0 | 8.0 | 0.00 | 0.00 | 0.00 | 33 | 1017.1 |
| 20260503211522 | 79 | 36 | 2.0 | 8.0 | 0.00 | 0.00 | 0.00 | 32 | 1017.4 |
| 20260503210018 | 79 | 163 | 2.0 | 6.0 | 0.00 | 0.00 | 0.00 | 31 | 1017.8 |
| 20260503204506 | 79 | 183 | 3.0 | 7.0 | 0.00 | 0.00 | 0.00 | 31 | 1018.1 |
| 20260503203014 | 79 | 159 | 3.0 | 7.0 | 0.00 | 0.00 | 0.00 | 33 | 1018.4 |
| 20260503201512 | 79 | 237 | 3.0 | 9.0 | 0.00 | 0.00 | 0.00 | 33 | 1018.6 |
| 20260503200019 | 78 | 155 | 3.0 | 7.0 | 0.00 | 0.00 | 0.00 | 33 | 1018.9 |
| 20260503194529 | 79 | 188 | 2.0 | 6.0 | 0.00 | 0.00 | 0.00 | 33 | 1019.2 |
| 20260503193024 | 79 | 125 | 3.0 | 6.0 | 0.00 | 0.00 | 0.00 | 37 | 1019.3 |
| 20260503191526 | 78 | 213 | 2.0 | 11.0 | 0.00 | 0.00 | 0.00 | 37 | 1019.7 |
| 20260503190015 | 78 | 179 | 2.0 | 7.0 | 0.00 | 0.00 | 0.00 | 35 | 1020.0 |
| 20260503184505 | 77 | 243 | 2.0 | 6.0 | 0.00 | 0.00 | 0.00 | 35 | 1020.4 |
| 20260503183004 | 77 | 143 | 2.0 | 6.0 | 0.00 | 0.00 | 0.00 | 35 | 1020.5 |
| 20260503181524 | 77 | 221 | 1.0 | 7.0 | 0.00 | 0.00 | 0.00 | 34 | 1020.8 |
| 20260503180024 | 77 | 356 | 3.0 | 5.0 | 0.00 | 0.00 | 0.00 | 37 | 1021.2 |
| 20260503174521 | 77 | 159 | 1.0 | 9.0 | 0.00 | 0.00 | 0.00 | 40 | 1021.4 |
| 20260503173017 | 76 | 150 | 3.0 | 7.0 | 0.00 | 0.00 | 0.00 | 38 | 1021.7 |
| 20260503171508 | 76 | 191 | 2.0 | 5.0 | 0.00 | 0.00 | 0.00 | 42 | 1022.0 |
| 20260503081516 | 56 | 188 | 0.0 | 0.0 | 0.00 | 0.00 | 0.00 | 72 | 1021.2 |
| 20260503071550 | 58 | 228 | 0.0 | 0.0 | 0.00 | 0.00 | 0.00 | 70 | 1021.6 |
| 20260503054533 | 60 | 218 | 0.0 | 0.0 | 0.00 | 0.00 | 0.00 | 65 | 1022.0 |
| 20260503053026 | 60 | 195 | 0.0 | 0.0 | 0.00 | 0.00 | 0.00 | 65 | 1021.9 |
| 20260503051535 | 60 | 182 | 0.0 | 0.0 | 0.00 | 0.00 | 0.00 | 66 | 1021.9 |
| 20260503050026 | 60 | 176 | 0.0 | 0.0 | 0.00 | 0.00 | 0.00 | 67 | 1021.8 |
| 20260503044526 | 59 | 158 | 0.0 | 0.0 | 0.00 | 0.00 | 0.00 | 67 | 1021.8 |
| 20260503043031 | 59 | 200 | 0.0 | 0.0 | 0.00 | 0.00 | 0.00 | 68 | 1021.7 |
| 20260503041532 | 60 | 200 | 0.0 | 0.0 | 0.00 | 0.00 | 0.00 | 66 | 1021.8 |
| 20260503040010 | 60 | 195 | 0.0 | 0.0 | 0.00 | 0.00 | 0.00 | 65 | 1021.6 |
| 20260503034506 | 60 | 159 | 0.0 | 0.0 | 0.00 | 0.00 | 0.00 | 64 | 1021.5 |
| 20260503033006 | 61 | 159 | 0.0 | 2.0 | 0.00 | 0.00 | 0.00 | 63 | 1021.5 |